ARIANE 3 DEB, 27025

Orbit data source: Space-Track

ARIANE 3 DEB, 27025 is space debris in HEO originally from a launch on Fri, 28 Mar 1986 UTC launched from the French Guiana (FRGUI). Debris objects in space refer to the collection of defunct objects orbiting the Earth. Examples of debris include non-operational satellites, rocket bodies, and fragments generated from explosions, collisions, or faulty payload assembly.

Loading next visibility...
Identifier
27025, 1986-026J
Orbit
HEO
Country
Flag of FRFR
Related business
Manufacturer
Unknown
Mission
Spacecraft
Bus & Motor
Unknown
Mass
Unknown
Launch date (UTC)
1986-03-28 (40 years ago)
Launch vehicle
Unknown
Launch site
French Guiana (FRGUI)
Object type
Payload
Rocket body
Debris
Shape & HBR
Unknown shape, 1.1 m
Radar Cross Section
Medium (>0.1 m² and <1 m²)

Expand to show TLE details & history
Last TLE update: 20 hours ago

TLE from 20 hours ago
0 ARIANE 3 DEB
1 27025U 86026J   26105.08121270  .00000189  00000-0  22833-3 0  9992
2 27025   6.9556  26.8103 7031047 290.8926  10.8561  2.49731288221771
Epoch: 2026-04-15T01:56Z
TLE epoch observation values (Epoch: 2026-04-15T01:56:56.777Z)
Latitude
0.00021°
Longitude
154.31384°
Altitude
2,910.387 km
Speed
8.273 km/s
True Right ascension
01h 47m 11s
True Declination
0° 00' 01"
Sunlit
Object was in daylight at epoch
Visualization orbit readout
Latitude
Unknown
Longitude
Unknown
Altitude
Unknown
Speed
Unknown
Apparent Right ascension
Unknown
Apparent Declination
Unknown
Sunlit
N/A
Visualization observer readout
Local Sidereal Time
04:57:04
Azimuth
Unknown
Elevation
Unknown
Doppler factor
Unknown
Orbital elements
Apogee altitude
32,714.378 km
Perigee altitude
436.702 km
Semi-major axis
22,953.677 km
Eccentricity
0.7031
Inclination
6.9556°
RAAN
26.8103°
Arg. of periapsis
290.8926°
True anomaly
69.84288°
Mean anomaly
10.8561°
Eccentric anomaly
32.50289°
Mean motion
0.62412 °/min
Orbital period
576.82 mins
BSTAR
0.00022833
Loading maneuver chart data...
Computing Atmospheric mass density...
Loading historical data...
Loading historical data...
Loading historical data...
Loading historical data...
Loading historical data...
Loading historical data...
Loading historical data...

Documentation

Showing up to 5 results
|